Total_Precipitation_Accumulation
0.04 0.04 0.04 0.04 0.03 0.02 0.01 0.01 0.01 0.01 0.00 0.01 0.01 0.01 0.01 0.01 0.01 0.01 0.01 0.01 0.01 0.00 0.01 0.01 0.01 0.01 0.01 0.00 0.00 0.00 0.00 0.00 0.00 0.00 0.00 0.00 0.00 0.00 0.00 0.00 0.00 0.00 0.00 0.00 0.00 0.00 0.01 0.00 0.00 0.00 0.00 0.00 0.01 0.04 0.18 0.29 0.45 0.61 1.04 1.24 1.79 2.08 1.91 0.95 1.38 0.95 0.33 1.25 0.53 0.99 1.13 0.93 0.58 0.38 0.56 0.31 0.56 0.63 0.38 0.08 0.04 0.01 0.00 0.00 0.00 0.00 0.00 0.01
0.03 0.03 0.03 0.03 0.03 0.02 0.01 0.01 0.01 0.01 0.01 0.01 0.01 0.01 0.01 0.01 0.01 0.01 0.01 0.01 0.01 0.01 0.01 0.01 0.01 0.01 0.01 0.00 0.00 0.00 0.01 0.00 0.00 0.00 0.00 0.00 0.00 0.00 0.00 0.00 0.00 0.00 0.00 0.00 0.00 0.00 0.00 0.00 0.00 0.00 0.00 0.01 0.00 0.12 0.14 1.11 0.31 1.51 0.53 1.26 2.64 1.71 1.24 0.85 0.98 0.75 1.10 0.98 0.74 1.20 0.76 0.90 0.43 1.08 0.43 0.53 0.27 0.59 0.38 0.24 0.02 0.01 0.00 0.00 0.00 0.00 0.01 0.01
0.03 0.02 0.02 0.02 0.01 0.01 0.01 0.01 0.01 0.01 0.01 0.01 0.01 0.01 0.01 0.01 0.01 0.01 0.01 0.01 0.01 0.01 0.01 0.02 0.01 0.01 0.01 0.00 0.00 0.00 0.01 0.00 0.00 0.00 0.00 0.00 0.00 0.00 0.00 0.00 0.00 0.00 0.00 0.00 0.00 0.00 0.00 0.00 0.00 0.00 0.00 0.01 0.02 0.14 0.26 0.79 0.23 0.60 1.32 1.44 1.70 1.62 1.36 0.77 0.50 0.77 1.14 0.30 0.72 0.71 0.44 0.92 0.76 0.35 0.12 0.83 0.38 0.24 0.26 0.04 0.04 0.01 0.01 0.00 0.01 0.00 0.01 0.01
0.02 0.03 0.03 0.02 0.01 0.01 0.01 0.00 0.00 0.00 0.01 0.01 0.01 0.01 0.01 0.01 0.01 0.01 0.01 0.01 0.01 0.01 0.02 0.02 0.01 0.01 0.01 0.00 0.00 0.00 0.00 0.00 0.00 0.00 0.00 0.00 0.00 0.00 0.00 0.00 0.00 0.00 0.00 0.00 0.00 0.00 0.00 0.00 0.00 0.00 0.00 0.00 0.01 0.13 0.49 0.35 0.30 0.52 0.62 0.99 1.41 0.94 1.17 0.83 0.81 0.61 0.98 0.74 0.56 0.52 0.48 0.55 0.63 0.57 0.94 0.48 0.18 0.39 0.08 0.06 0.03 0.01 0.01 0.01 0.00 0.00 0.01 0.01
0.02 0.03 0.03 0.02 0.01 0.01 0.01 0.01 0.00 0.01 0.00 0.01 0.01 0.01 0.01 0.01 0.01 0.01 0.01 0.01 0.01 0.02 0.02 0.02 0.01 0.01 0.00 0.00 0.00 0.00 0.00 0.00 0.00 0.00 0.00 0.00 0.00 0.00 0.00 0.00 0.00 0.00 0.00 0.00 0.00 0.00 0.00 0.00 0.00 0.00 0.00 0.02 0.00 0.09 0.39 0.48 0.06 0.12 0.69 0.57 0.84 0.74 0.86 1.17 1.28 0.79 0.70 0.94 0.43 0.40 0.44 0.58 0.12 0.39 0.89 0.98 0.93 0.40 0.12 0.04 0.01 0.00 0.00 0.00 0.00 0.00 0.00 0.00
0.03 0.03 0.02 0.01 0.01 0.01 0.01 0.01 0.01 0.01 0.00 0.00 0.01 0.01 0.01 0.01 0.01 0.00 0.00 0.01 0.02 0.02 0.01 0.01 0.01 0.00 0.00 0.00 0.00 0.00 0.00 0.00 0.00 0.00 0.00 0.00 0.00 0.00 0.00 0.00 0.00 0.00 0.00 0.00 0.00 0.00 0.00 0.00 0.00 0.00 0.00 0.00 0.00 0.05 0.25 0.04 0.06 0.71 0.31 0.17 0.80 0.43 0.98 0.81 1.17 1.04 1.27 0.82 1.03 0.38 1.03 0.72 0.34 0.30 0.21 0.76 1.42 0.69 0.13 0.02 0.00 0.00 0.00 0.00 0.00 0.00 0.01 0.00
0.03 0.03 0.01 0.01 0.01 0.01 0.01 0.01 0.01 0.01 0.01 0.01 0.01 0.01 0.01 0.01 0.00 0.00 0.01 0.01 0.01 0.01 0.02 0.01 0.01 0.01 0.00 0.00 0.00 0.00 0.00 0.00 0.00 0.00 0.00 0.00 0.00 0.00 0.00 0.00 0.00 0.00 0.00 0.00 0.00 0.00 0.00 0.00 0.00 0.00 0.00 0.00 0.00 0.04 0.10 0.09 0.02 0.27 0.24 0.07 0.50 0.54 0.66 0.73 0.61 1.07 1.50 1.09 0.81 0.91 0.74 0.70 0.24 0.67 0.55 1.03 0.35 0.26 0.30 0.03 0.01 0.00 0.00 0.00 0.00 0.00 0.00 0.00
0.03 0.02 0.01 0.01 0.01 0.01 0.01 0.01 0.01 0.01 0.01 0.01 0.01 0.02 0.02 0.02 0.01 0.01 0.01 0.01 0.01 0.01 0.01 0.01 0.01 0.00 0.00 0.00 0.00 0.00 0.00 0.00 0.00 0.00 0.00 0.00 0.00 0.00 0.00 0.00 0.00 0.00 0.00 0.00 0.00 0.00 0.00 0.00 0.00 0.00 0.00 0.00 0.00 0.04 0.13 0.03 0.03 0.24 0.22 0.19 0.12 0.77 0.60 0.57 0.57 0.78 0.86 0.99 0.92 0.64 0.71 0.97 0.86 0.84 0.35 0.52 0.12 0.21 0.16 0.06 0.01 0.00 0.00 0.00 0.00 0.00 0.00 0.00
0.02 0.01 0.01 0.01 0.01 0.01 0.01 0.01 0.01 0.01 0.02 0.02 0.02 0.01 0.01 0.01 0.01 0.01 0.00 0.01 0.00 0.01 0.01 0.01 0.00 0.00 0.01 0.00 0.00 0.00 0.00 0.00 0.00 0.00 0.00 0.00 0.00 0.00 0.00 0.00 0.00 0.00 0.00 0.00 0.00 0.00 0.00 0.00 0.00 0.00 0.00 0.00 0.00 0.00 0.07 0.05 0.23 0.02 0.21 0.10 0.04 0.30 0.57 0.66 0.72 1.28 1.29 0.71 0.87 0.94 0.95 1.16 1.34 0.65 0.81 0.18 0.19 0.12 0.15 0.01 0.01 0.00 0.00 0.00 0.00 0.00 0.00 0.00
0.02 0.01 0.01 0.01 0.01 0.01 0.01 0.01 0.01 0.01 0.01 0.01 0.01 0.01 0.01 0.01 0.01 0.01 0.01 0.01 0.01 0.01 0.01 0.01 0.00 0.00 0.00 0.00 0.00 0.00 0.00 0.00 0.00 0.00 0.00 0.00 0.00 0.00 0.00 0.00 0.00 0.00 0.00 0.00 0.00 0.00 0.00 0.00 0.00 0.00 0.00 0.00 0.00 0.00 0.03 0.01 0.07 0.00 0.29 0.10 0.02 0.07 0.37 0.62 0.61 0.69 1.16 1.01 1.32 0.71 0.42 0.61 0.48 0.33 0.95 0.13 0.04 0.04 0.22 0.07 0.02 0.00 0.00 0.00 0.00 0.00 0.00 0.00
0.01 0.00 0.01 0.01 0.01 0.01 0.01 0.01 0.01 0.01 0.01 0.01 0.01 0.01 0.01 0.01 0.01 0.01 0.00 0.00 0.00 0.01 0.01 0.01 0.00 0.00 0.00 0.00 0.00 0.00 0.00 0.00 0.00 0.00 0.00 0.00 0.00 0.00 0.00 0.00 0.00 0.00 0.00 0.00 0.00 0.00 0.00 0.00 0.00 0.00 0.00 0.00 0.00 0.00 0.00 0.02 0.00 0.03 0.12 0.01 0.06 0.41 0.54 0.54 0.66 0.79 1.40 2.22 1.45 1.78 1.47 0.68 0.43 0.35 0.52 0.07 0.05 0.04 0.08 0.04 0.02 0.00 0.00 0.00 0.00 0.00 0.00 0.00
0.00 0.00 0.00 0.00 0.00 0.00 0.00 0.01 0.01 0.01 0.02 0.01 0.01 0.01 0.01 0.01 0.00 0.00 0.00 0.00 0.00 0.00 0.01 0.01 0.00 0.00 0.00 0.00 0.00 0.00 0.00 0.00 0.00 0.00 0.00 0.00 0.00 0.00 0.00 0.00 0.00 0.00 0.00 0.00 0.00 0.00 0.00 0.00 0.00 0.00 0.00 0.00 0.00 0.00 0.00 0.00 0.02 0.02 0.00 0.08 0.20 0.30 0.52 0.65 0.99 1.05 1.29 1.98 1.35 1.76 1.61 1.01 0.41 1.28 0.37 0.14 0.15 0.07 0.04 0.01 0.00 0.00 0.00 0.00 0.00 0.00 0.00 0.00
0.00 0.00 0.00 0.00 0.00 0.01 0.01 0.01 0.01 0.01 0.01 0.01 0.01 0.01 0.00 0.01 0.00 0.00 0.00 0.00 0.00 0.00 0.01 0.00 0.00 0.00 0.00 0.00 0.00 0.00 0.00 0.00 0.00 0.00 0.00 0.00 0.00 0.00 0.00 0.00 0.00 0.00 0.00 0.00 0.00 0.00 0.00 0.00 0.00 0.00 0.00 0.00 0.00 0.00 0.00 0.03 0.02 0.02 0.01 0.06 0.20 0.48 0.48 0.67 1.14 0.99 1.48 1.56 1.42 1.27 1.31 1.05 1.35 0.59 0.29 0.38 0.07 0.12 0.06 0.02 0.03 0.01 0.00 0.00 0.00 0.00 0.00 0.00
0.00 0.00 0.00 0.00 0.00 0.01 0.01 0.01 0.00 0.01 0.01 0.01 0.00 0.00 0.00 0.00 0.00 0.00 0.00 0.00 0.00 0.00 0.00 0.00 0.00 0.00 0.00 0.00 0.00 0.00 0.00 0.00 0.00 0.00 0.00 0.00 0.00 0.00 0.00 0.00 0.00 0.00 0.00 0.00 0.00 0.00 0.00 0.00 0.00 0.00 0.00 0.00 0.00 0.00 0.00 0.00 0.00 0.02 0.12 0.03 0.03 0.03 0.37 0.65 0.92 0.85 1.56 1.30 1.61 0.88 1.29 0.96 1.25 0.63 0.24 0.16 0.12 0.04 0.08 0.04 0.03 0.03 0.01 0.01 0.00 0.01 0.01 0.00
0.01 0.00 0.00 0.00 0.01 0.01 0.01 0.01 0.01 0.00 0.01 0.00 0.00 0.00 0.00 0.00 0.00 0.00 0.00 0.00 0.01 0.00 0.00 0.01 0.00 0.00 0.00 0.00 0.00 0.00 0.00 0.00 0.00 0.00 0.00 0.00 0.00 0.00 0.00 0.00 0.00 0.00 0.00 0.00 0.00 0.00 0.00 0.00 0.00 0.00 0.00 0.00 0.00 0.00 0.00 0.00 0.00 0.03 0.04 0.22 0.45 0.01 0.29 0.59 0.91 0.78 1.18 0.94 1.21 0.66 0.98 0.78 0.79 0.68 0.50 0.28 0.10 0.05 0.26 0.13 0.10 0.01 0.01 0.01 0.02 0.02 0.03 0.03
0.00 0.00 0.00 0.01 0.01 0.01 0.00 0.00 0.00 0.00 0.00 0.00 0.00 0.00 0.00 0.00 0.00 0.00 0.00 0.00 0.00 0.00 0.01 0.00 0.00 0.00 0.00 0.00 0.00 0.00 0.00 0.00 0.00 0.00 0.00 0.00 0.00 0.00 0.00 0.00 0.00 0.00 0.00 0.00 0.00 0.00 0.00 0.00 0.00 0.00 0.00 0.00 0.00 0.00 0.00 0.00 0.00 0.02 0.02 0.04 0.08 0.06 0.13 0.39 0.78 1.01 1.11 0.61 1.21 1.18 1.40 0.85 1.15 0.68 0.55 0.19 0.37 0.06 0.09 0.19 0.08 0.03 0.01 0.00 0.00 0.03 0.03 0.02
0.00 0.00 0.00 0.01 0.01 0.01 0.00 0.00 0.00 0.00 0.00 0.01 0.00 0.00 0.00 0.00 0.00 0.00 0.00 0.00 0.00 0.00 0.00 0.00 0.00 0.00 0.00 0.00 0.00 0.00 0.00 0.00 0.00 0.00 0.00 0.00 0.00 0.00 0.00 0.00 0.00 0.00 0.00 0.00 0.00 0.00 0.00 0.00 0.00 0.00 0.00 0.00 0.00 0.00 0.01 0.02 0.01 0.02 0.00 0.19 0.11 0.04 0.07 0.22 0.23 0.61 1.00 0.73 0.98 0.64 1.04 0.61 0.42 0.25 0.32 0.34 0.16 0.17 0.03 0.07 0.08 0.04 0.03 0.02 0.02 0.01 0.01 0.05
0.00 0.00 0.00 0.00 0.01 0.01 0.00 0.00 0.00 0.00 0.00 0.00 0.00 0.00 0.00 0.00 0.00 0.00 0.00 0.00 0.00 0.00 0.00 0.00 0.00 0.00 0.00 0.00 0.00 0.00 0.00 0.00 0.00 0.00 0.00 0.00 0.00 0.00 0.00 0.00 0.00 0.00 0.00 0.00 0.00 0.00 0.00 0.00 0.00 0.00 0.00 0.00 0.00 0.00 0.00 0.02 0.03 0.07 0.01 0.04 0.07 0.19 0.03 0.27 0.04 0.16 0.45 0.90 0.83 0.73 0.91 0.96 0.79 0.52 0.61 0.50 0.62 0.20 0.19 0.10 0.06 0.08 0.08 0.03 0.03 0.01 0.04 0.04
0.00 0.00 0.00 0.00 0.01 0.01 0.00 0.00 0.00 0.00 0.01 0.00 0.00 0.00 0.00 0.00 0.00 0.00 0.00 0.00 0.00 0.00 0.00 0.00 0.00 0.00 0.00 0.00 0.00 0.00 0.00 0.00 0.00 0.00 0.00 0.00 0.00 0.00 0.00 0.00 0.00 0.00 0.00 0.00 0.00 0.00 0.00 0.00 0.00 0.00 0.00 0.00 0.00 0.00 0.00 0.02 0.01 0.02 0.09 0.32 0.47 0.24 0.56 0.31 0.03 0.05 0.11 0.37 0.84 1.04 0.87 0.99 0.85 0.70 0.75 0.51 0.40 0.34 0.64 0.15 0.27 0.22 0.37 0.11 0.08 0.04 0.03 0.06
0.00 0.01 0.00 0.00 0.00 0.01 0.01 0.00 0.00 0.00 0.01 0.00 0.00 0.00 0.00 0.00 0.00 0.00 0.00 0.00 0.00 0.00 0.00 0.00 0.00 0.00 0.00 0.00 0.00 0.00 0.00 0.00 0.00 0.00 0.00 0.00 0.00 0.00 0.00 0.00 0.00 0.00 0.00 0.00 0.00 0.00 0.00 0.00 0.00 0.00 0.00 0.00 0.00 0.00 0.00 0.00 0.00 0.00 0.07 0.06 0.12 0.15 0.04 0.27 0.12 0.06 0.34 0.46 0.42 1.08 0.97 1.16 1.09 0.65 1.05 0.49 0.30 0.37 0.41 0.66 0.41 0.22 0.33 0.36 0.31 0.12 0.06 0.07
0.00 0.00 0.00 0.00 0.00 0.00 0.00 0.00 0.00 0.00 0.02 0.00 0.00 0.00 0.00 0.00 0.00 0.00 0.00 0.00 0.00 0.00 0.00 0.00 0.00 0.00 0.00 0.00 0.00 0.00 0.00 0.00 0.00 0.00 0.00 0.00 0.00 0.00 0.00 0.00 0.00 0.00 0.00 0.00 0.00 0.00 0.00 0.00 0.00 0.00 0.00 0.00 0.00 0.00 0.00 0.00 0.00 0.01 0.03 0.06 0.11 0.02 0.08 0.09 0.10 0.39 0.84 0.90 1.04 0.97 0.85 1.25 1.01 0.69 1.07 0.69 0.68 0.47 0.32 0.28 0.71 0.51 0.21 0.17 0.22 0.43 0.25 0.07
0.00 0.00 0.00 0.00 0.00 0.00 0.00 0.00 0.00 0.01 0.01 0.00 0.00 0.00 0.00 0.00 0.00 0.00 0.00 0.00 0.00 0.00 0.00 0.00 0.00 0.00 0.00 0.00 0.00 0.00 0.00 0.00 0.00 0.00 0.00 0.00 0.00 0.00 0.00 0.00 0.00 0.00 0.00 0.00 0.00 0.00 0.00 0.00 0.00 0.00 0.00 0.00 0.00 0.00 0.00 0.00 0.00 0.00 0.02 0.07 0.07 0.22 0.12 0.20 0.46 0.55 0.76 0.45 0.81 1.15 0.89 1.40 0.98 0.88 1.12 0.90 0.53 0.63 0.90 0.57 0.99 0.30 0.41 0.26 0.15 0.17 0.38 0.05
0.00 0.00 0.00 0.00 0.00 0.00 0.00 0.00 0.00 0.01 0.00 0.00 0.00 0.00 0.00 0.00 0.00 0.00 0.00 0.00 0.00 0.00 0.00 0.00 0.00 0.00 0.00 0.00 0.00 0.00 0.00 0.00 0.00 0.00 0.00 0.00 0.00 0.00 0.00 0.00 0.00 0.00 0.00 0.00 0.00 0.00 0.00 0.00 0.00 0.00 0.00 0.00 0.00 0.00 0.00 0.00 0.00 0.01 0.00 0.01 0.09 0.14 0.06 0.10 0.12 0.33 0.76 0.76 0.36 0.43 0.70 1.21 1.23 0.88 0.79 1.31 0.43 0.66 0.51 0.47 0.38 0.73 0.46 0.41 0.21 0.10 0.09 0.06
0.00 0.00 0.00 0.00 0.00 0.00 0.00 0.00 0.01 0.00 0.00 0.00 0.00 0.00 0.00 0.00 0.00 0.00 0.00 0.00 0.00 0.00 0.00 0.00 0.00 0.00 0.00 0.00 0.00 0.00 0.00 0.00 0.00 0.00 0.00 0.00 0.00 0.00 0.00 0.00 0.00 0.00 0.00 0.00 0.00 0.00 0.00 0.00 0.00 0.00 0.00 0.00 0.00 0.00 0.00 0.00 0.01 0.00 0.00 0.01 0.05 0.05 0.01 0.00 0.03 0.37 0.45 0.50 0.41 0.35 0.52 1.35 1.36 0.95 0.71 0.85 0.68 0.30 0.36 0.32 0.23 0.45 0.65 0.63 0.30 0.11 0.06 0.10
0.00 0.00 0.00 0.00 0.00 0.00 0.00 0.00 0.00 0.00 0.00 0.00 0.00 0.00 0.00 0.00 0.00 0.00 0.00 0.00 0.00 0.00 0.00 0.00 0.00 0.00 0.00 0.00 0.00 0.00 0.00 0.00 0.00 0.00 0.00 0.00 0.00 0.00 0.00 0.00 0.00 0.00 0.00 0.00 0.00 0.00 0.00 0.00 0.00 0.00 0.00 0.00 0.00 0.00 0.00 0.00 0.02 0.00 0.00 0.01 0.00 0.02 0.00 0.02 0.00 0.04 0.15 0.45 0.51 0.24 0.33 0.87 0.95 0.90 0.71 1.08 0.80 0.40 0.28 0.20 0.15 0.55 0.68 0.31 0.49 0.27 0.11 0.06
0.00 0.00 0.00 0.00 0.00 0.00 0.00 0.00 0.00 0.00 0.00 0.00 0.00 0.00 0.00 0.00 0.00 0.00 0.00 0.00 0.00 0.00 0.00 0.00 0.00 0.00 0.00 0.00 0.00 0.00 0.00 0.00 0.00 0.00 0.00 0.00 0.00 0.00 0.00 0.00 0.00 0.00 0.00 0.00 0.00 0.00 0.00 0.00 0.00 0.00 0.00 0.00 0.00 0.00 0.00 0.00 0.01 0.00 0.01 0.00 0.00 0.00 0.00 0.03 0.01 0.00 0.06 0.17 0.28 0.17 0.12 0.35 1.01 0.91 0.99 1.15 0.97 0.49 0.25 0.31 0.11 0.22 0.35 0.37 0.25 0.16 0.12 0.11
0.00 0.00 0.00 0.00 0.00 0.00 0.00 0.00 0.00 0.00 0.00 0.00 0.00 0.00 0.00 0.00 0.00 0.00 0.00 0.02 0.02 0.00 0.00 0.00 0.00 0.00 0.00 0.00 0.00 0.00 0.00 0.00 0.00 0.00 0.00 0.00 0.00 0.00 0.00 0.00 0.00 0.00 0.00 0.00 0.00 0.00 0.00 0.00 0.00 0.00 0.00 0.00 0.00 0.00 0.00 0.00 0.00 0.01 0.00 0.00 0.00 0.00 0.01 0.02 0.00 0.00 0.01 0.07 0.11 0.30 0.08 0.31 0.34 0.40 0.80 1.18 1.24 0.84 0.31 0.31 0.39 0.64 0.48 0.22 0.40 0.15 0.12 0.14
0.00 0.00 0.00 0.00 0.00 0.01 0.00 0.00 0.00 0.00 0.00 0.00 0.00 0.00 0.00 0.00 0.00 0.00 0.00 0.00 0.00 0.00 0.01 0.00 0.00 0.00 0.00 0.00 0.00 0.00 0.00 0.00 0.00 0.00 0.00 0.00 0.00 0.00 0.00 0.00 0.00 0.00 0.00 0.00 0.00 0.00 0.00 0.00 0.00 0.00 0.00 0.00 0.00 0.00 0.00 0.00 0.00 0.00 0.00 0.00 0.00 0.00 0.01 0.00 0.00 0.01 0.00 0.00 0.08 0.19 0.11 0.14 0.14 0.41 0.54 0.80 0.87 0.89 0.55 0.34 0.28 0.59 0.59 0.44 0.25 0.21 0.12 0.15
0.00 0.00 0.00 0.00 0.00 0.00 0.00 0.00 0.00 0.00 0.00 0.00 0.00 0.00 0.00 0.00 0.00 0.00 0.02 0.10 0.00 0.00 0.00 0.02 0.00 0.00 0.00 0.00 0.00 0.00 0.00 0.00 0.00 0.00 0.00 0.00 0.00 0.00 0.00 0.00 0.00 0.00 0.00 0.00 0.00 0.00 0.00 0.00 0.00 0.00 0.00 0.00 0.00 0.00 0.00 0.00 0.00 0.00 0.00 0.00 0.00 0.01 0.01 0.00 0.09 0.07 0.29 0.02 0.02 0.04 0.08 0.13 0.07 0.32 0.38 0.61 0.77 0.77 0.60 0.37 0.26 0.29 0.58 0.32 0.23 0.12 0.18 0.17
0.00 0.00 0.00 0.00 0.00 0.00 0.00 0.00 0.00 0.00 0.00 0.00 0.00 0.00 0.00 0.00 0.00 0.01 0.02 0.12 0.00 0.01 0.00 0.00 0.00 0.00 0.00 0.00 0.00 0.00 0.00 0.00 0.00 0.00 0.00 0.00 0.00 0.00 0.00 0.00 0.00 0.00 0.00 0.00 0.00 0.00 0.00 0.00 0.00 0.00 0.00 0.00 0.00 0.00 0.00 0.00 0.00 0.00 0.00 0.00 0.01 0.00 0.09 0.03 0.01 0.04 0.08 0.00 0.00 0.01 0.05 0.03 0.18 0.26 0.41 0.35 0.93 0.74 0.99 0.25 0.31 0.52 0.43 0.13 0.14 0.18 0.24 0.17
0.00 0.00 0.00 0.00 0.01 0.00 0.00 0.00 0.00 0.00 0.00 0.00 0.00 0.00 0.00 0.00 0.00 0.05 0.10 0.02 0.00 0.00 0.00 0.00 0.00 0.00 0.00 0.00 0.00 0.00 0.00 0.00 0.00 0.00 0.00 0.00 0.00 0.00 0.00 0.00 0.00 0.00 0.00 0.00 0.00 0.00 0.00 0.00 0.00 0.00 0.00 0.00 0.00 0.00 0.00 0.00 0.00 0.00 0.00 0.00 0.00 0.07 0.24 0.17 0.22 0.02 0.08 0.00 0.00 0.01 0.02 0.03 0.11 0.21 0.21 0.03 0.24 0.53 0.49 0.49 0.23 0.31 0.28 0.07 0.08 0.15 0.20 0.18
0.00 0.00 0.00 0.00 0.00 0.01 0.00 0.00 0.00 0.00 0.00 0.00 0.00 0.00 0.00 0.04 0.01 0.14 0.09 0.00 0.00 0.00 0.00 0.00 0.00 0.00 0.00 0.00 0.00 0.00 0.00 0.00 0.00 0.00 0.00 0.00 0.00 0.00 0.00 0.00 0.00 0.00 0.00 0.00 0.00 0.00 0.00 0.00 0.00 0.00 0.00 0.00 0.00 0.00 0.00 0.00 0.00 0.00 0.00 0.00 0.00 0.13 0.34 0.12 0.60 0.35 0.01 0.02 0.01 0.01 0.01 0.03 0.07 0.03 0.01 0.02 0.05 0.39 0.52 0.45 0.51 0.21 0.12 0.14 0.13 0.16 0.39 0.45
0.00 0.00 0.00 0.00 0.00 0.00 0.00 0.00 0.00 0.00 0.00 0.00 0.00 0.00 0.01 0.20 0.10 0.04 0.01 0.00 0.00 0.00 0.00 0.00 0.00 0.00 0.00 0.00 0.00 0.00 0.00 0.00 0.00 0.00 0.00 0.00 0.00 0.00 0.00 0.00 0.00 0.00 0.01 0.00 0.00 0.00 0.00 0.00 0.00 0.00 0.00 0.00 0.00 0.00 0.00 0.00 0.00 0.00 0.00 0.00 0.00 0.00 0.01 0.05 0.11 0.15 0.01 0.00 0.00 0.00 0.02 0.03 0.05 0.09 0.07 0.04 0.03 0.12 0.22 0.36 0.23 0.12 0.15 0.25 0.37 0.09 0.40 1.05
0.00 0.00 0.00 0.00 0.00 0.00 0.00 0.00 0.00 0.00 0.00 0.00 0.00 0.00 0.02 0.02 0.14 0.00 0.00 0.00 0.00 0.00 0.00 0.00 0.00 0.00 0.00 0.00 0.00 0.00 0.00 0.00 0.00 0.00 0.00 0.00 0.00 0.00 0.00 0.00 0.00 0.00 0.00 0.00 0.00 0.00 0.00 0.00 0.00 0.00 0.00 0.00 0.00 0.00 0.00 0.00 0.00 0.00 0.00 0.00 0.00 0.00 0.00 0.00 0.00 0.01 0.01 0.02 0.01 0.01 0.00 0.08 0.02 0.16 0.02 0.01 0.06 0.04 0.03 0.10 0.31 0.31 0.31 0.45 0.46 0.71 0.74 1.12
0.00 0.00 0.00 0.00 0.00 0.00 0.00 0.00 0.00 0.00 0.00 0.00 0.00 0.14 0.11 0.07 0.01 0.03 0.01 0.00 0.00 0.00 0.00 0.00 0.00 0.00 0.00 0.00 0.00 0.00 0.00 0.00 0.00 0.00 0.00 0.00 0.01 0.00 0.00 0.00 0.00 0.00 0.00 0.00 0.00 0.00 0.00 0.00 0.00 0.00 0.00 0.00 0.00 0.00 0.00 0.00 0.00 0.00 0.00 0.00 0.00 0.00 0.00 0.00 0.00 0.00 0.01 0.01 0.00 0.02 0.05 0.14 0.11 0.02 0.09 0.00 0.01 0.06 0.18 0.04 0.21 0.25 0.35 0.29 0.32 1.01 0.81 0.42
0.00 0.00 0.00 0.00 0.00 0.00 0.00 0.00 0.00 0.00 0.00 0.00 0.03 0.07 0.06 0.01 0.02 0.00 0.00 0.00 0.00 0.00 0.00 0.00 0.00 0.00 0.00 0.00 0.00 0.00 0.00 0.00 0.00 0.00 0.00 0.00 0.00 0.00 0.00 0.00 0.00 0.00 0.00 0.00 0.00 0.00 0.00 0.00 0.00 0.00 0.00 0.00 0.00 0.00 0.00 0.00 0.00 0.00 0.00 0.00 0.00 0.00 0.00 0.00 0.00 0.00 0.00 0.00 0.03 0.02 0.02 0.15 0.01 0.17 0.82 0.50 0.08 0.02 0.04 0.02 0.05 0.12 0.20 0.15 0.49 0.70 0.67 0.41
0.00 0.00 0.00 0.00 0.00 0.00 0.00 0.00 0.00 0.00 0.00 0.00 0.07 0.06 0.00 0.00 0.00 0.00 0.00 0.00 0.00 0.00 0.00 0.00 0.00 0.00 0.00 0.00 0.00 0.00 0.00 0.00 0.00 0.00 0.00 0.00 0.00 0.00 0.00 0.00 0.00 0.00 0.00 0.00 0.00 0.00 0.00 0.00 0.00 0.00 0.00 0.00 0.00 0.00 0.00 0.00 0.00 0.00 0.00 0.00 0.00 0.00 0.00 0.00 0.00 0.00 0.00 0.02 0.03 0.01 0.03 0.03 0.01 0.17 0.12 0.18 0.09 0.06 0.13 0.04 0.02 0.06 0.12 0.16 0.23 0.19 0.22 0.25
0.00 0.00 0.00 0.00 0.00 0.00 0.00 0.00 0.00 0.00 0.00 0.04 0.03 0.00 0.00 0.00 0.00 0.00 0.00 0.00 0.00 0.00 0.00 0.00 0.00 0.00 0.00 0.00 0.00 0.00 0.00 0.00 0.00 0.00 0.00 0.00 0.00 0.00 0.00 0.00 0.00 0.00 0.00 0.00 0.00 0.01 0.00 0.00 0.00 0.00 0.00 0.00 0.00 0.00 0.00 0.00 0.00 0.00 0.00 0.00 0.01 0.02 0.00 0.00 0.00 0.00 0.00 0.00 0.02 0.05 0.08 0.01 0.03 0.09 0.06 0.06 0.24 0.44 0.57 0.27 0.10 0.05 0.12 0.14 0.11 0.25 0.29 0.21
0.00 0.00 0.00 0.00 0.00 0.00 0.00 0.00 0.00 0.00 0.03 0.08 0.08 0.07 0.01 0.01 0.00 0.00 0.00 0.00 0.00 0.00 0.00 0.00 0.00 0.00 0.00 0.00 0.00 0.00 0.00 0.00 0.00 0.00 0.00 0.00 0.00 0.00 0.00 0.00 0.00 0.00 0.00 0.00 0.00 0.00 0.00 0.00 0.00 0.00 0.00 0.00 0.00 0.00 0.00 0.00 0.00 0.00 0.00 0.00 0.00 0.00 0.00 0.00 0.00 0.03 0.00 0.01 0.00 0.44 0.26 0.23 0.31 0.09 0.08 0.08 0.31 0.33 0.09 0.09 0.06 0.10 0.09 0.13 0.09 0.10 0.10 0.15
0.00 0.00 0.00 0.00 0.00 0.00 0.00 0.00 0.00 0.01 0.07 0.18 0.02 0.01 0.00 0.00 0.00 0.00 0.00 0.00 0.00 0.00 0.00 0.00 0.00 0.00 0.00 0.00 0.01 0.00 0.01 0.01 0.00 0.00 0.00 0.01 0.00 0.00 0.00 0.00 0.00 0.00 0.00 0.00 0.00 0.00 0.00 0.00 0.01 0.01 0.00 0.00 0.00 0.00 0.00 0.00 0.00 0.00 0.01 0.00 0.00 0.00 0.00 0.00 0.00 0.00 0.01 0.01 0.00 0.03 0.08 0.14 0.19 0.77 0.66 0.56 0.57 0.29 0.10 0.03 0.03 0.16 0.26 0.17 0.08 0.08 0.16 0.19
0.00 0.00 0.00 0.00 0.00 0.00 0.00 0.00 0.03 0.06 0.05 0.05 0.01 0.01 0.01 0.00 0.00 0.00 0.00 0.00 0.00 0.00 0.00 0.00 0.00 0.00 0.00 0.00 0.01 0.00 0.01 0.01 0.02 0.01 0.00 0.01 0.00 0.00 0.00 0.00 0.00 0.00 0.00 0.00 0.00 0.00 0.00 0.00 0.00 0.00 0.00 0.00 0.00 0.00 0.00 0.00 0.00 0.00 0.00 0.00 0.00 0.00 0.00 0.00 0.01 0.00 0.00 0.00 0.01 0.03 0.06 0.03 0.03 0.07 0.13 0.46 0.19 0.16 0.07 0.02 0.04 0.36 0.35 0.55 0.27 0.11 0.04 0.04
0.00 0.02 0.00 0.00 0.00 0.00 0.00 0.05 0.02 0.01 0.02 0.10 0.08 0.01 0.02 0.00 0.00 0.00 0.00 0.00 0.00 0.00 0.00 0.00 0.00 0.00 0.00 0.01 0.00 0.00 0.00 0.01 0.03 0.02 0.01 0.00 0.00 0.00 0.00 0.00 0.00 0.00 0.00 0.00 0.00 0.04 0.00 0.00 0.00 0.01 0.00 0.00 0.00 0.00 0.00 0.00 0.00 0.00 0.00 0.00 0.00 0.00 0.00 0.00 0.00 0.00 0.00 0.00 0.01 0.13 0.05 0.07 0.06 0.19 0.19 0.21 0.16 0.14 0.26 0.08 0.15 0.38 0.74 0.58 0.23 0.14 0.12 0.23
0.00 0.01 0.00 0.00 0.00 0.00 0.00 0.06 0.01 0.02 0.05 0.04 0.00 0.08 0.01 0.04 0.03 0.08 0.02 0.03 0.03 0.04 0.02 0.00 0.01 0.02 0.01 0.00 0.00 0.00 0.00 0.01 0.04 0.03 0.03 0.02 0.02 0.00 0.00 0.00 0.00 0.00 0.00 0.00 0.00 0.00 0.00 0.00 0.00 0.00 0.00 0.00 0.00 0.00 0.00 0.00 0.00 0.00 0.00 0.00 0.00 0.00 0.00 0.00 0.00 0.00 0.00 0.09 0.03 0.03 0.04 0.05 0.06 0.34 0.11 0.24 0.27 0.03 0.22 0.36 0.94 0.71 0.58 0.79 0.22 0.24 0.16 0.40
0.00 0.00 0.00 0.00 0.00 0.00 0.02 0.06 0.04 0.02 0.02 0.01 0.02 0.02 0.01 0.03 0.01 0.07 0.05 0.05 0.07 0.08 0.05 0.03 0.02 0.02 0.01 0.00 0.00 0.01 0.02 0.02 0.09 0.03 0.05 0.04 0.04 0.00 0.00 0.00 0.00 0.00 0.00 0.00 0.00 0.01 0.00 0.00 0.00 0.01 0.02 0.00 0.00 0.00 0.00 0.00 0.00 0.00 0.00 0.00 0.00 0.00 0.00 0.00 0.00 0.00 0.00 0.01 0.01 0.02 0.07 0.04 0.17 0.16 0.11 0.13 0.27 0.05 0.03 0.03 0.04 0.03 0.09 0.05 0.10 0.10 0.67 0.68
0.01 0.01 0.00 0.00 0.00 0.00 0.09 0.04 0.02 0.02 0.02 0.02 0.03 0.01 0.05 0.03 0.02 0.01 0.04 0.07 0.04 0.06 0.03 0.09 0.09 0.06 0.04 0.02 0.01 0.00 0.02 0.03 0.10 0.06 0.04 0.05 0.04 0.02 0.00 0.00 0.00 0.00 0.00 0.00 0.00 0.00 0.00 0.00 0.02 0.04 0.01 0.01 0.00 0.00 0.02 0.13 0.01 0.00 0.00 0.00 0.00 0.00 0.00 0.00 0.00 0.00 0.00 0.07 0.01 0.02 0.13 0.08 0.04 0.05 0.13 0.30 0.17 0.27 0.01 0.01 0.01 0.01 0.01 0.02 0.05 0.14 0.36 0.03
0.01 0.07 0.00 0.00 0.00 0.04 0.02 0.00 0.02 0.02 0.05 0.02 0.01 0.02 0.02 0.06 0.03 0.05 0.03 0.05 0.02 0.03 0.02 0.09 0.04 0.01 0.08 0.04 0.05 0.01 0.03 0.02 0.09 0.07 0.09 0.09 0.07 0.04 0.03 0.01 0.00 0.00 0.00 0.00 0.00 0.00 0.00 0.00 0.00 0.00 0.02 0.04 0.18 0.07 0.01 0.00 0.00 0.01 0.00 0.00 0.00 0.00 0.00 0.00 0.00 0.00 0.00 0.01 0.05 0.01 0.00 0.04 0.09 0.02 0.08 0.11 0.14 0.02 0.01 0.00 0.00 0.00 0.01 0.02 0.02 0.03 0.05 0.05
0.14 0.07 0.01 0.23 0.01 0.07 0.01 0.03 0.03 0.09 0.11 0.04 0.04 0.02 0.02 0.03 0.02 0.02 0.04 0.21 0.12 0.03 0.04 0.09 0.06 0.03 0.15 0.08 0.10 0.05 0.07 0.04 0.03 0.07 0.11 0.09 0.07 0.04 0.05 0.02 0.02 0.00 0.00 0.00 0.00 0.00 0.00 0.00 0.00 0.00 0.00 0.01 0.00 0.00 0.02 0.00 0.00 0.00 0.00 0.00 0.00 0.00 0.00 0.01 0.00 0.00 0.00 0.00 0.01 0.01 0.00 0.01 0.09 0.01 0.01 0.01 0.01 0.02 0.01 0.01 0.00 0.00 0.01 0.01 0.03 0.02 0.01 0.03
0.21 0.08 0.02 0.38 0.11 0.04 0.01 0.04 0.03 0.12 0.11 0.07 0.08 0.06 0.05 0.02 0.02 0.07 0.00 0.04 0.05 0.14 0.07 0.35 0.21 0.10 0.10 0.08 0.10 0.09 0.13 0.09 0.04 0.09 0.10 0.08 0.06 0.06 0.06 0.05 0.07 0.06 0.01 0.01 0.00 0.00 0.02 0.00 0.00 0.00 0.00 0.00 0.00 0.01 0.00 0.00 0.00 0.00 0.00 0.00 0.00 0.00 0.00 0.00 0.00 0.00 0.00 0.01 0.15 0.02 0.01 0.05 0.02 0.03 0.01 0.02 0.01 0.01 0.29 0.04 0.02 0.02 0.01 0.00 0.00 0.01 0.03 0.01
0.07 0.10 0.02 0.08 0.22 0.13 0.08 0.05 0.03 0.06 0.09 0.08 0.06 0.05 0.04 0.03 0.05 0.03 0.02 0.03 0.05 0.15 0.11 0.21 0.14 0.15 0.18 0.10 0.05 0.14 0.15 0.24 0.17 0.09 0.09 0.16 0.08 0.09 0.11 0.11 0.05 0.05 0.05 0.02 0.02 0.00 0.04 0.00 0.00 0.00 0.00 0.00 0.00 0.00 0.00 0.00 0.00 0.00 0.00 0.02 0.00 0.00 0.00 0.00 0.00 0.00 0.00 0.00 0.00 0.01 0.02 0.06 0.07 0.05 0.03 0.01 0.01 0.02 0.03 0.70 0.18 0.01 0.01 0.00 0.00 0.00 0.02 0.02
0.18 0.26 0.65 0.09 0.16 0.16 0.03 0.04 0.02 0.04 0.07 0.07 0.15 0.09 0.16 0.09 0.06 0.02 0.03 0.03 0.10 0.15 0.10 0.13 0.14 0.09 0.14 0.10 0.13 0.09 0.13 0.04 0.12 0.11 0.08 0.06 0.08 0.11 0.12 0.12 0.17 0.15 0.08 0.04 0.01 0.15 0.00 0.05 0.00 0.02 0.01 0.00 0.00 0.00 0.00 0.00 0.00 0.00 0.00 0.00 0.00 0.00 0.00 0.00 0.00 0.00 0.00 0.00 0.00 0.02 0.02 0.09 0.13 0.01 0.02 0.02 0.01 0.04 0.01 0.54 0.24 0.03 0.01 0.01 0.01 0.01 0.01 0.03
0.19 0.71 0.72 0.66 0.30 0.13 0.26 0.07 0.08 0.08 0.11 0.07 0.13 0.17 0.09 0.16 0.17 0.08 0.08 0.03 0.05 0.22 0.15 0.12 0.09 0.07 0.06 0.10 0.09 0.12 0.10 0.05 0.02 0.02 0.03 0.03 0.09 0.14 0.15 0.22 0.09 0.22 0.13 0.07 0.07 0.11 0.00 0.05 0.00 0.00 0.01 0.01 0.00 0.02 0.00 0.00 0.00 0.00 0.00 0.00 0.00 0.00 0.03 0.00 0.00 0.02 0.01 0.02 0.02 0.02 0.02 0.12 0.01 0.01 0.00 0.02 0.02 0.00 0.04 0.27 0.36 0.45 0.07 0.05 0.09 0.02 0.04 0.08
0.50 0.64 0.72 0.90 0.63 0.25 0.15 0.06 0.11 0.12 0.17 0.06 0.18 0.23 0.11 0.10 0.06 0.14 0.14 0.04 0.09 0.26 0.24 0.10 0.11 0.11 0.08 0.11 0.12 0.12 0.05 0.02 0.01 0.00 0.00 0.00 0.01 0.02 0.03 0.05 0.06 0.08 0.13 0.09 0.04 0.10 0.05 0.11 0.04 0.05 0.01 0.01 0.01 0.01 0.02 0.01 0.02 0.02 0.01 0.00 0.00 0.00 0.00 0.00 0.01 0.03 0.04 0.02 0.01 0.03 0.16 0.05 0.00 0.00 0.00 0.02 0.04 0.04 0.01 0.13 0.30 0.35 0.22 0.13 0.43 0.38 0.29 0.09